Theta_e
310 309 309 309 309 309 310 310 310 310 311 311 311 311 311 311 311 310 309 311 305 304 306 308 311 311 314 315 312 316 314 315 314 310 309 308 308 311 311 313 312 310 309 307 309 306 303 318 317 315 320 323 325 328
309 309 309 309 309 309 310 310 310 310 310 310 310 310 310 310 311 310 306 310 310 303 303 309 310 311 311 314 312 314 315 316 317 314 315 314 310 311 312 306 316 309 314 311 311 311 322 321 321 325 324 324 327 329
309 309 309 309 309 309 309 309 309 310 310 310 309 310 310 310 310 309 307 308 308 302 302 303 308 313 314 311 311 307 316 318 317 320 315 315 312 315 308 309 312 317 320 315 316 318 318 321 323 325 326 325 326 330
308 309 308 308 308 309 309 309 309 309 309 309 310 310 309 310 310 309 306 309 305 303 298 301 309 308 311 311 313 313 311 315 316 316 312 312 310 317 312 314 314 316 319 316 316 319 322 324 325 326 326 326 326 329
308 308 308 308 309 308 309 309 309 309 309 309 309 309 309 309 310 310 310 313 311 303 298 299 305 308 310 311 310 311 309 308 310 309 309 309 314 314 315 315 313 319 316 314 313 320 320 322 326 327 325 325 327 328
307 307 308 308 308 308 308 308 309 309 309 309 309 309 309 309 310 307 301 310 313 309 300 295 304 303 308 312 312 313 311 307 307 309 308 311 316 314 309 309 316 319 322 322 321 323 324 325 326 326 326 327 327 328
307 307 307 308 308 308 308 308 309 309 309 308 309 309 309 309 308 303 301 306 307 309 300 296 298 306 308 309 308 312 313 311 307 305 305 307 310 311 308 304 316 319 320 322 324 323 321 323 323 326 326 327 325 328
307 307 307 307 308 308 308 308 308 308 308 308 309 309 308 306 306 304 310 308 308 302 301 295 296 299 307 302 299 305 302 304 307 306 307 304 306 307 304 311 314 316 318 319 321 322 322 323 324 326 327 327 325 326
307 307 308 308 308 308 308 309 308 308 309 309 308 306 308 307 303 304 307 309 309 304 295 297 294 293 304 301 301 302 305 297 304 301 304 305 303 300 305 308 310 315 315 316 319 321 321 321 322 323 324 326 325 325
307 307 308 308 308 308 308 308 308 308 308 307 306 303 300 305 306 307 304 300 299 298 298 294 299 294 300 299 298 297 300 297 294 298 303 299 298 307 310 312 315 314 313 314 313 313 316 320 321 322 324 325 326 327
307 308 308 308 308 308 308 308 308 308 307 305 301 300 305 306 305 302 297 296 297 293 298 298 298 295 301 295 295 299 296 297 291 295 296 295 296 303 309 311 313 313 314 315 315 318 320 321 322 323 325 327 327 328
307 308 308 308 308 308 308 308 308 307 305 303 302 305 305 302 298 293 293 296 294 292 300 299 300 299 299 302 296 299 295 296 290 299 295 292 299 308 312 316 316 317 316 315 316 316 320 322 323 325 326 327 328 329
307 308 308 308 308 308 308 308 308 307 307 306 301 296 296 296 287 286 285 291 293 300 301 300 296 296 301 303 297 296 291 292 300 294 292 295 304 308 315 317 318 320 321 321 320 318 317 319 323 324 325 328 329 329
308 308 308 308 308 308 309 308 308 307 305 297 292 285 290 289 291 294 294 297 300 299 298 297 295 294 296 295 296 288 294 296 290 289 291 299 307 310 313 314 315 315 319 321 321 321 320 320 321 325 326 328 328 329
308 308 308 307 308 308 308 308 306 309 302 293 293 285 290 295 297 297 298 297 298 299 296 295 295 296 294 293 292 290 289 288 291 290 295 299 300 308 310 312 310 312 317 321 323 323 322 323 324 326 327 328 330 330
307 307 308 306 308 307 307 307 308 307 301 295 293 290 294 293 294 295 296 295 301 298 298 297 293 291 289 289 286 287 288 289 291 294 294 295 296 305 308 311 310 312 315 320 323 324 325 326 325 325 327 328 329 329
306 306 305 307 307 307 306 306 304 298 295 292 292 296 295 295 294 295 297 296 301 295 291 294 287 287 291 286 287 291 288 292 294 294 296 298 300 305 308 309 310 312 315 320 323 326 326 327 328 327 326 328 327 327
306 308 304 306 307 307 308 304 299 295 291 295 292 295 297 297 296 296 298 299 295 293 295 291 295 288 287 284 289 295 297 297 298 298 298 300 303 306 309 313 312 314 315 321 324 327 326 326 326 326 327 326 324 322
307 308 307 306 307 304 300 299 300 291 292 296 297 298 298 297 298 298 299 299 298 298 294 292 292 289 290 294 295 297 300 302 301 303 299 302 304 308 310 312 313 315 321 322 325 324 324 326 326 326 324 322 318 320
307 307 307 307 306 302 294 296 301 294 291 296 297 296 296 295 297 298 297 298 297 293 290 289 293 296 296 299 302 303 303 304 302 297 298 302 305 307 307 310 311 319 320 321 323 317 323 321 322 321 320 320 321 320
305 307 306 307 305 303 297 296 295 295 295 292 297 296 294 297 295 294 297 302 294 292 294 298 299 302 306 307 308 307 305 305 301 300 301 301 306 308 310 311 318 321 325 322 322 321 319 317 317 316 317 320 321 320
306 304 307 305 299 298 296 300 296 297 295 295 295 295 293 291 293 296 301 296 296 300 302 300 302 305 306 307 305 306 307 308 305 304 304 305 306 307 308 317 319 317 319 321 323 322 316 315 316 319 321 321 318 321
303 304 301 299 294 291 291 298 292 295 291 292 295 292 292 293 295 299 296 300 302 305 304 304 309 309 308 307 306 309 308 305 305 306 307 307 306 309 317 319 320 319 318 319 321 319 320 314 317 322 321 323 324 323
303 297 293 292 292 290 297 293 295 293 292 291 292 290 293 295 297 295 293 299 302 305 306 308 307 306 307 307 305 304 306 307 306 307 308 306 307 312 315 318 320 321 322 324 323 322 323 322 315 323 324 323 323 321
291 290 291 287 295 292 290 290 291 291 289 292 291 293 295 296 291 291 294 299 303 304 306 306 307 307 305 306 304 304 309 308 306 305 308 309 308 307 315 320 321 322 323 322 322 322 322 323 323 322 322 321 319 317
286 292 289 290 291 290 291 289 290 290 291 290 293 299 296 292 289 290 295 299 301 304 306 305 304 304 306 306 305 304 306 309 307 309 310 315 320 318 318 318 319 323 326 324 323 322 322 322 320 318 318 316 305 316
286 289 293 296 294 293 292 295 296 293 290 290 294 294 291 286 288 296 301 303 302 307 309 309 308 307 306 305 308 308 308 309 308 311 314 320 323 322 324 319 319 325 326 324 324 321 317 316 316 316 316 317 318 318
292 292 289 291 291 293 289 291 291 291 293 297 297 292 290 290 294 302 304 307 308 311 311 311 313 311 309 310 310 307 308 310 316 320 323 326 328 328 325 324 323 306 324 323 322 321 319 319 319 319 319 319 320 321
291 293 292 289 290 291 291 290 293 298 301 301 296 295 297 304 307 307 309 312 314 313 311 312 312 315 314 313 310 310 310 312 313 316 315 316 320 324 328 327 327 326 326 325 300 313 321 320 321 321 321 322 322 321
291 294 290 289 288 289 293 295 295 299 301 300 301 301 302 305 309 314 313 314 314 313 315 315 316 315 313 311 311 311 311 311 312 310 313 316 319 325 328 327 326 326 327 326 324 323 304 318 316 323 322 322 322 321
297 294 291 292 292 296 297 299 301 301 303 303 304 300 301 304 311 317 318 318 316 315 316 317 316 316 314 313 310 310 308 312 311 312 315 321 328 328 328 328 327 327 326 326 324 323 322 321 322 322 323 321 321 318
295 293 292 292 295 300 301 299 300 301 304 304 304 307 308 308 307 314 319 318 316 313 309 314 316 315 317 317 316 318 303 315 318 319 318 318 327 328 327 327 327 327 327 326 326 325 325 323 322 322 323 323 322 321
295 296 295 294 294 295 302 301 304 304 307 307 309 311 312 311 307 313 320 320 318 317 317 318 318 319 320 320 320 320 312 326 316 301 304 303 306 316 328 328 328 328 326 324 324 324 324 323 323 323 322 322 321 322
Wind_Speed
10 11 12 12 13 14 15 15 15 16 17 17 17 18 18 19 19 12 3 8 6 5 11 9 10 10 9 6 8 7 8 8 6 10 11 13 14 16 17 20 16 14 9 11 12 13 14 5 8 15 4 4 9 11
10 11 11 12 13 13 14 15 15 15 15 16 16 16 17 17 17 15 4 6 6 7 8 8 13 15 13 10 9 7 10 7 5 6 4 7 9 8 15 16 19 17 16 11 10 8 5 4 14 12 4 2 8 13
10 11 11 12 13 14 14 14 15 15 15 15 16 15 15 15 15 12 7 6 6 5 8 7 2 2 5 11 15 8 7 7 7 3 6 5 7 6 12 14 19 17 11 12 10 12 12 8 7 10 8 5 4 8
11 11 12 12 12 13 13 13 14 14 14 15 15 14 14 14 13 12 6 4 3 5 6 2 2 3 10 10 8 13 19 15 10 6 8 8 8 4 9 7 8 6 11 15 14 15 2 9 11 9 9 8 7 10
11 11 11 12 12 13 14 13 13 13 14 14 14 14 13 13 12 10 3 1 3 6 7 9 16 3 5 6 9 14 15 15 9 10 10 11 10 12 11 12 10 10 11 10 11 13 13 11 5 6 8 10 10 13
10 11 11 12 13 13 14 14 14 15 15 16 16 15 14 13 11 7 5 4 2 5 6 6 6 5 7 9 9 10 11 11 11 9 10 10 17 11 9 16 19 19 11 9 5 6 5 4 3 5 7 8 12 13
10 11 12 12 13 14 14 15 16 16 16 17 17 16 15 12 7 5 7 5 5 4 5 6 5 2 6 8 5 3 4 5 7 11 14 12 10 12 15 18 15 13 19 20 16 14 13 11 6 3 3 5 7 9
11 11 12 12 13 14 15 15 16 16 17 18 18 17 12 3 2 2 3 6 4 3 5 6 6 5 5 4 5 4 7 6 7 8 7 11 12 14 15 16 17 22 21 18 17 11 13 14 14 10 6 7 10 12
11 11 12 13 14 14 15 15 16 17 18 19 19 12 5 5 1 3 0 6 4 4 5 4 5 6 6 6 7 5 3 7 5 11 12 10 12 13 10 16 17 18 21 21 22 21 19 16 13 14 14 13 13 12
11 12 12 13 14 14 15 15 16 17 19 18 8 3 3 4 6 7 2 3 3 3 3 6 6 10 7 7 5 7 4 6 7 9 9 15 16 20 20 16 11 17 19 20 21 22 21 21 19 15 13 15 15 15
11 12 13 13 14 14 15 14 14 15 11 4 4 3 6 2 4 3 3 4 3 4 5 5 5 6 2 9 10 4 5 5 7 7 12 11 14 15 21 23 21 24 23 21 21 19 19 20 18 15 13 14 14 16
12 12 12 13 13 14 14 13 11 7 5 6 6 6 4 3 2 3 2 2 5 3 2 3 2 5 5 5 4 4 5 5 8 5 7 14 13 16 7 11 11 18 24 25 22 21 18 17 18 17 14 13 14 15
12 12 12 13 13 13 13 10 8 9 11 3 3 4 1 2 1 4 4 4 3 2 3 4 7 5 2 3 4 4 7 8 9 10 18 17 14 7 5 9 12 12 16 17 19 23 23 17 17 18 15 13 14 16
12 12 12 12 12 9 10 9 9 7 5 3 3 4 5 4 5 3 4 2 2 5 7 8 8 6 5 4 4 5 7 6 7 11 16 7 17 15 11 11 13 14 15 15 18 19 18 18 17 15 14 15 17 18
11 11 11 5 9 9 9 8 3 3 4 4 3 5 6 4 3 5 5 6 6 5 6 7 7 5 5 5 3 5 6 7 6 5 9 15 21 19 16 14 15 14 14 14 13 14 16 16 15 13 14 17 18 18
11 13 1 6 9 7 6 4 4 2 3 3 5 5 6 7 8 5 6 6 2 4 5 5 5 4 5 3 4 7 5 5 4 9 11 15 22 21 17 17 16 15 15 14 12 13 12 12 14 15 16 17 19 19
9 3 3 7 9 7 4 4 2 4 4 5 5 6 8 10 9 8 6 5 1 4 4 3 4 4 3 5 4 5 5 7 11 15 12 19 18 17 15 15 15 15 15 14 12 13 11 13 16 18 20 18 18 17
4 1 2 7 9 5 2 3 3 4 7 7 7 5 6 9 9 9 8 5 4 4 3 3 2 5 5 6 6 5 8 13 13 12 12 17 18 17 13 16 14 15 14 15 12 13 12 18 19 16 19 19 18 17
6 7 7 8 7 5 3 2 2 5 6 6 7 8 9 9 10 9 8 6 6 4 1 4 8 6 7 8 12 14 13 11 13 14 14 19 18 15 16 17 15 14 14 11 13 12 10 15 15 16 15 14 13 14
10 11 9 8 6 3 4 3 1 5 6 4 8 8 7 9 8 8 8 7 5 4 6 7 8 11 11 13 14 15 14 11 8 13 15 12 12 12 13 12 7 10 7 11 14 13 12 10 9 11 11 14 15 14
5 1 2 4 4 5 3 3 5 4 6 5 6 7 7 6 7 6 5 2 4 5 8 10 11 10 13 15 14 14 14 10 11 11 14 12 10 8 7 6 9 5 6 9 14 15 15 13 12 11 12 12 14 13
1 1 2 2 3 4 4 4 5 6 5 7 8 3 5 5 4 4 4 4 6 9 7 5 11 12 13 17 13 14 14 11 11 11 12 11 5 6 6 6 9 8 8 9 14 15 11 12 13 13 14 12 13 12
2 2 2 3 3 3 4 2 4 4 5 4 4 4 3 3 3 5 5 6 5 4 3 9 12 13 14 14 14 13 11 11 9 10 9 8 9 9 8 9 9 12 12 11 11 12 13 14 12 13 14 12 11 11
3 2 3 3 5 5 3 4 4 4 4 4 3 5 3 3 5 4 5 4 4 7 7 9 10 10 11 9 7 8 7 8 10 11 8 8 7 10 8 9 9 12 11 11 13 15 13 14 15 13 12 14 13 12
3 3 3 4 4 4 5 4 5 4 4 3 4 5 1 1 3 4 5 3 6 8 9 10 10 10 9 8 7 9 10 8 6 7 8 6 5 7 5 7 10 11 12 14 14 15 14 12 12 14 14 13 14 14
4 4 4 3 3 5 4 5 4 3 2 4 5 2 1 2 3 5 3 2 3 9 10 11 10 9 9 7 9 10 11 11 10 8 11 9 6 11 14 15 14 13 11 12 13 14 15 14 14 15 14 13 12 14
4 5 4 3 3 4 6 6 7 6 5 4 3 1 0 3 4 4 4 3 4 9 10 9 8 7 7 9 8 8 10 11 7 4 5 6 9 9 9 11 14 7 10 13 12 14 16 15 16 16 15 14 12 12
5 3 6 5 5 5 5 4 5 5 4 3 3 3 3 5 5 2 3 5 8 10 9 7 6 2 4 5 6 8 9 10 8 1 2 9 10 9 10 8 7 11 10 11 12 11 13 15 14 15 14 13 11 10
4 2 3 5 4 5 6 7 6 3 3 4 3 3 5 5 7 10 12 10 7 6 5 4 1 0 1 3 5 6 5 8 11 18 18 12 10 8 7 6 7 9 9 9 14 9 15 13 12 12 12 11 10 6
4 5 4 4 5 7 5 8 6 6 5 5 6 9 13 13 13 10 7 6 4 3 3 3 3 1 2 0 3 5 4 4 4 5 6 7 4 2 4 6 7 9 9 10 10 10 9 11 9 8 8 8 9 7
2 6 4 5 5 4 7 8 9 10 12 12 10 10 12 7 6 2 3 3 3 4 3 1 1 2 4 4 3 3 3 3 4 4 3 2 3 5 6 7 6 7 7 9 10 9 9 8 7 7 8 8 8 7
5 6 3 4 4 2 4 4 3 3 3 4 4 4 4 4 4 2 3 2 2 3 1 2 3 5 5 4 3 3 5 4 3 4 3 4 5 7 6 6 5 5 5 6 6 8 8 6 6 5 7 6 6 5
3 4 5 3 3 3 3 3 3 4 4 3 3 3 3 3 4 3 4 3 2 2 2 3 3 3 4 4 5 4 1 3 4 4 4 6 7 5 1 4 3 3 5 7 7 8 8 7 7 6 6 7 7 5
Wind_Direction
357 356 356 357 357 356 356 356 357 357 358 0 2 3 3 4 5 344 9 11 341 300 293 268 270 280 273 251 276 46 262 196 250 246 245 236 239 246 231 245 223 201 214 216 242 253 250 179 183 204 247 133 157 178
350 349 348 348 348 348 348 349 350 351 354 355 355 357 357 359 3 341 334 348 333 257 301 319 288 290 278 282 289 258 293 305 335 287 264 280 249 244 245 234 224 237 232 242 213 220 147 221 228 203 7 15 191 181
346 344 342 342 343 343 342 342 343 345 346 347 348 349 351 350 354 347 322 343 297 270 264 240 194 115 260 239 247 264 236 265 257 1 320 288 267 279 240 228 257 204 244 253 227 235 232 222 244 248 246 259 256 214
338 337 340 340 340 339 337 336 337 338 339 338 339 340 341 340 341 329 326 14 274 292 282 55 175 237 321 267 247 244 265 290 285 284 272 263 261 233 265 283 280 249 170 228 241 243 268 242 252 258 247 232 237 208
337 335 334 334 334 335 336 335 332 331 332 330 329 328 330 330 328 301 300 19 327 325 320 304 299 329 259 282 260 251 247 246 244 242 235 247 250 274 262 274 261 229 244 229 237 248 227 258 273 242 225 200 181 168
328 327 326 328 329 331 330 328 328 327 326 324 324 322 320 319 317 290 208 164 10 345 284 288 24 271 316 310 273 243 242 235 233 243 243 253 258 252 252 239 234 258 253 253 264 48 1 355 276 186 180 171 169 168
324 322 322 322 325 326 325 324 323 321 319 318 316 314 308 297 278 280 351 28 22 341 263 283 265 136 320 296 308 274 258 223 242 234 241 259 251 217 253 258 265 243 244 259 264 288 279 257 245 185 220 170 144 168
325 324 324 324 323 323 325 326 325 323 320 317 313 311 308 275 214 229 55 201 273 284 268 281 281 249 11 332 308 357 290 254 209 245 232 231 231 242 252 253 250 250 260 264 267 258 263 277 273 235 244 224 187 184
325 325 323 321 321 323 324 323 323 322 316 314 312 307 210 220 176 73 11 283 231 306 303 277 302 328 16 340 300 269 263 266 256 235 236 238 227 226 227 233 238 237 241 251 261 255 251 252 265 265 249 225 221 203
320 318 317 319 320 320 323 325 324 323 316 311 286 260 197 56 339 271 128 197 184 165 241 269 299 287 318 342 320 323 266 270 281 250 242 235 244 247 236 246 246 235 246 247 248 254 258 250 241 250 250 241 228 203
314 315 315 315 317 319 321 322 328 326 281 337 343 319 346 332 246 212 252 233 167 212 206 236 253 294 319 320 322 278 307 290 269 252 245 249 247 239 233 237 242 246 251 249 246 247 252 252 242 229 231 227 206 173
313 313 314 315 315 319 320 314 318 301 344 340 308 303 286 250 291 242 238 250 229 256 218 291 330 321 315 318 277 273 265 253 253 299 280 260 258 271 303 309 266 253 248 250 251 251 250 247 252 227 220 217 193 159
313 313 314 313 316 316 317 326 304 299 286 265 218 250 298 202 276 195 211 207 231 298 0 339 305 315 274 272 261 278 271 251 298 262 254 260 278 274 313 306 293 290 284 276 266 249 247 248 252 241 211 205 166 161
309 312 313 313 316 326 315 317 315 303 279 293 298 290 251 188 250 235 282 302 306 305 305 326 306 280 262 252 253 255 250 282 252 258 263 321 8 349 321 310 302 298 295 269 248 245 240 237 237 224 210 175 165 157
309 310 310 313 334 329 324 310 323 292 290 277 258 250 236 262 255 250 276 280 272 308 300 289 278 245 262 255 226 265 247 248 263 15 329 330 320 310 306 297 293 288 285 277 260 244 224 222 206 192 180 165 156 150
317 297 182 347 330 330 330 277 257 259 239 246 247 256 250 265 264 237 243 270 317 292 296 247 268 261 241 237 239 229 256 261 324 327 307 295 290 290 291 290 282 279 275 276 271 267 211 180 171 162 155 156 152 150
297 255 49 335 331 303 262 275 254 235 269 240 235 242 269 276 278 281 287 293 33 285 252 277 263 242 314 242 239 222 234 298 310 297 280 287 266 279 280 275 281 278 275 271 271 252 209 175 155 150 149 150 142 136
258 354 307 312 324 307 216 229 262 261 254 241 249 266 255 267 288 290 281 261 187 229 227 249 253 229 235 248 249 236 264 280 269 266 276 290 290 289 276 273 279 274 271 265 256 222 176 161 151 146 144 139 131 130
298 309 308 293 305 307 279 217 235 267 253 266 274 275 273 281 282 281 279 266 243 206 235 246 250 230 233 241 259 270 277 279 283 308 300 291 290 288 286 280 270 265 260 245 204 174 151 160 148 144 141 140 129 139
275 274 278 264 238 254 263 239 266 280 273 324 305 284 287 289 292 292 279 257 187 176 206 229 243 267 275 280 282 289 290 294 291 294 286 276 280 277 271 264 262 254 204 197 172 125 138 116 110 130 136 136 135 136
258 74 274 193 207 233 276 286 248 239 282 263 292 306 284 294 293 284 269 159 171 223 233 241 263 279 298 300 294 294 289 289 275 272 284 289 291 271 277 270 216 169 171 162 146 131 134 127 124 114 122 132 129 135
276 254 277 180 248 218 257 241 277 306 264 282 311 299 276 284 288 278 326 244 244 248 254 301 293 308 302 302 301 301 299 285 279 283 290 293 283 300 300 172 142 130 119 128 126 118 116 109 119 136 132 125 134 129
217 222 216 247 250 228 258 281 253 241 265 288 289 278 252 265 261 332 259 245 271 300 291 285 308 308 304 301 298 304 323 308 293 306 315 326 311 268 126 115 117 120 109 105 110 105 110 133 128 125 129 128 130 132
76 232 233 226 207 256 217 229 221 266 273 262 241 264 261 262 323 256 253 271 330 318 298 325 315 318 321 328 317 316 305 306 313 321 324 328 342 53 49 88 94 104 115 126 119 122 129 124 125 124 131 138 138 144
242 213 213 238 237 248 254 242 235 256 268 287 275 273 268 307 270 259 271 324 332 337 338 325 323 329 328 322 307 300 284 285 295 289 299 295 268 270 209 144 122 115 118 118 116 118 122 120 126 137 136 137 140 149
236 208 212 228 246 233 252 271 248 280 268 255 256 281 90 267 260 258 266 287 306 318 332 333 328 327 323 320 315 318 320 337 333 15 21 20 57 109 114 110 105 99 98 104 110 115 121 124 128 134 130 135 142 147
245 224 198 240 274 306 279 264 279 275 263 259 274 178 259 271 259 256 280 268 259 306 325 317 320 319 310 315 319 321 320 337 345 333 330 24 49 34 57 84 89 77 108 111 114 117 122 126 123 124 132 138 137 131
239 239 213 182 210 221 265 287 265 241 228 232 268 244 235 227 255 251 260 295 291 304 313 315 334 16 312 303 328 323 333 333 328 239 131 76 57 57 68 63 53 57 99 109 120 129 125 122 125 119 117 117 117 113
234 212 201 218 206 232 225 222 249 232 232 222 248 249 248 227 278 295 305 317 325 310 302 336 327 132 270 329 317 320 347 355 25 79 85 75 48 32 38 74 88 98 97 84 47 102 126 126 127 125 126 124 110 92
229 185 215 207 214 228 227 210 247 259 268 258 265 279 284 289 294 295 298 297 297 302 320 330 298 254 122 342 352 357 357 354 10 40 45 47 10 349 81 92 105 119 124 114 112 109 106 119 115 136 141 139 141 146
228 175 229 224 254 242 231 249 261 265 266 265 257 251 272 286 296 259 278 302 295 285 299 94 112 334 14 68 53 65 64 345 310 298 285 320 85 116 119 116 113 114 117 122 133 141 143 161 143 136 141 159 147 191
193 209 229 253 261 241 263 213 242 268 282 254 253 215 239 244 266 96 120 201 242 268 33 340 336 2 11 2 75 122 199 233 200 165 181 197 141 117 133 122 121 119 134 136 134 132 161 159 153 155 142 153 148 189
218 217 223 264 262 267 247 246 243 256 235 248 236 244 248 326 8 60 132 201 270 325 308 293 293 320 340 341 360 1 156 106 48 16 10 353 4 15 116 129 96 104 143 143 134 134 151 150 139 151 159 155 164 168